Weather History for Sterling, IL

Change the Weather History Date:

Tuesday, January 28, 2014

  Actual Average Record
Temperature  
Mean Temperature -4 °F -  
Max Temperature 6 °F 27 °F 48 °F (2002)
Min Temperature -14 °F 15 °F -14 °F (2014)
Degree Days  
Heating Degree Days 69    
Moisture  
Dew Point -12 °F    
Average Humidity 67    
Maximum Humidity 85    
Minimum Humidity 56    
Precipitation  
Precipitation 0.00 in - - ()
Sea Level Pressure  
Sea Level Pressure 30.36 in    
Wind  
Wind Speed 7 mph (West)    
Max Wind Speed 20 mph    
Max Gust Speed -    
Visibility 10 miles    
Events      
Averages and records for this station are not official NWS values.
T = Trace of Precipitation, MM = Missing Value Source: NWS Daily Summary

Daily Weather History Graph

Daily Weather History Graph

Search for Another Location

Airport:

Trip Planner

Search our weather history database for the weather conditions in past years. The results will help you decide how hot, cold, wet, or windy it might be!

Date:

Astronomy

Jan. 28, 2014 Rise Set
Actual Time 7:14 AM CST 5:09 PM CST
Civil Twilight 6:44 AM CST 5:38 PM CST
Nautical Twilight 6:11 AM CST 6:12 PM CST
Astronomical Twilight 5:38 AM CST 6:45 PM CST
Moon 4:56 AM CST 2:58 PM CST
Length of Visible Light 10h 53m
Length of Day
9h 54m
Waning Crescent, 7% of the Moon is Illuminated
Jan 28
Waning Crescent
Jan 30
New
Feb 6
First Quarter
Feb 14
Full
Feb 22
Last Quarter

Hourly Weather History & Observations

Time (CST) Temp. Windchill Dew Point Humidity Pressure Visibility Wind Dir Wind Speed Gust Speed Precip Events Conditions
12:15 AM -9.4 °F -27.9 °F -18.4 °F 65% 30.45 in 10.0 mi West 10.4 mph - N/A   Clear
12:35 AM -9.4 °F -25.6 °F -18.4 °F 65% 30.45 in 10.0 mi WNW 8.1 mph - N/A   Clear
12:55 AM -9.4 °F -22.7 °F -18.4 °F 65% 30.44 in 10.0 mi West 5.8 mph - N/A   Clear
1:15 AM -11.2 °F -26.4 °F -20.2 °F 64% 30.44 in 10.0 mi WNW 6.9 mph - N/A   Clear
1:35 AM -9.4 °F -18.6 °F -18.4 °F 65% 30.44 in 10.0 mi West 3.5 mph - N/A   Clear
1:55 AM -11.2 °F -23.0 °F -20.2 °F 64% 30.43 in 10.0 mi WNW 4.6 mph - N/A   Clear
2:15 AM -11.2 °F -23.0 °F -20.2 °F 64% 30.43 in 10.0 mi West 4.6 mph - N/A   Clear
2:35 AM -11.2 °F -23.0 °F -18.4 °F 70% 30.43 in 10.0 mi West 4.6 mph - N/A   Clear
2:55 AM -11.2 °F -20.6 °F -18.4 °F 70% 30.42 in 10.0 mi WNW 3.5 mph - N/A   Clear
3:15 AM -11.2 °F -20.6 °F -20.2 °F 64% 30.42 in 10.0 mi WSW 3.5 mph - N/A   Clear
3:35 AM -11.2 °F - -18.4 °F 70% 30.42 in 10.0 mi Calm Calm - N/A   Clear
3:55 AM -11.2 °F - -20.2 °F 64% 30.41 in 10.0 mi Calm Calm - N/A   Clear
4:15 AM -13.0 °F - -18.4 °F 77% 30.41 in 10.0 mi Calm Calm - N/A   Clear
4:35 AM -14.8 °F -27.2 °F -20.2 °F 77% 30.41 in 10.0 mi West 4.6 mph - N/A   Clear
4:55 AM -14.8 °F -24.8 °F -20.2 °F 77% 30.41 in 10.0 mi West 3.5 mph - N/A   Clear
5:15 AM -13.0 °F -27.0 °F -18.4 °F 77% 30.43 in 10.0 mi West 5.8 mph - N/A   Clear
5:35 AM -11.2 °F -24.8 °F -18.4 °F 70% 30.43 in 10.0 mi West 5.8 mph - N/A   Clear
5:55 AM -11.2 °F -27.8 °F -18.4 °F 70% 30.43 in 10.0 mi West 8.1 mph - N/A   Clear
6:15 AM -13.0 °F -27.0 °F -20.2 °F 70% 30.43 in 10.0 mi West 5.8 mph - N/A   Clear
6:35 AM -13.0 °F -27.0 °F -18.4 °F 77% 30.44 in 10.0 mi West 5.8 mph - N/A   Clear
6:55 AM -11.2 °F -23.0 °F -18.4 °F 70% 30.43 in 10.0 mi West 4.6 mph - N/A   Clear
7:15 AM -14.8 °F -24.8 °F -20.2 °F 77% 30.43 in 10.0 mi WNW 3.5 mph - N/A   Clear
7:35 AM -11.2 °F -24.8 °F -18.4 °F 70% 30.43 in 10.0 mi West 5.8 mph - N/A   Clear
7:55 AM -9.4 °F -18.6 °F -16.6 °F 71% 30.43 in 10.0 mi West 3.5 mph - N/A   Clear
8:15 AM -9.4 °F -22.7 °F -16.6 °F 71% 30.43 in 10.0 mi West 5.8 mph - N/A   Clear
8:35 AM -7.6 °F -16.5 °F -14.8 °F 71% 30.43 in 10.0 mi WSW 3.5 mph - N/A   Clear
8:55 AM -5.8 °F -19.9 °F -14.8 °F 65% 30.43 in 10.0 mi West 6.9 mph - N/A   Clear
9:15 AM -4.0 °F -19.0 °F -13.0 °F 65% 30.43 in 10.0 mi West 8.1 mph - N/A   Clear
9:35 AM -2.2 °F -18.9 °F -13.0 °F 60% 30.43 in 10.0 mi West 10.4 mph - N/A   Clear
9:55 AM -2.2 °F -18.9 °F -9.4 °F 71% 30.43 in 10.0 mi West 10.4 mph - N/A   Clear
10:15 AM -0.4 °F -17.6 °F -11.2 °F 60% 30.43 in 10.0 mi West 11.5 mph - N/A   Clear
10:35 AM -0.4 °F -16.7 °F -9.4 °F 66% 30.43 in 10.0 mi West 10.4 mph - N/A   Clear
10:55 AM -0.4 °F -18.4 °F -9.4 °F 66% 30.43 in 10.0 mi West 12.7 mph - N/A   Clear
11:15 AM 1.4 °F -16.9 °F -9.4 °F 61% 30.42 in 10.0 mi West 13.8 mph - N/A   Clear
11:35 AM 1.4 °F -16.9 °F -9.4 °F 61% 30.41 in 10.0 mi West 13.8 mph - N/A   Clear
11:55 AM 1.4 °F -16.9 °F -9.4 °F 61% 30.40 in 10.0 mi West 13.8 mph - N/A   Clear
12:15 PM 3.2 °F -14.6 °F -7.6 °F 61% 30.38 in 10.0 mi West 13.8 mph - N/A   Clear
12:35 PM 3.2 °F -16.5 °F -7.6 °F 61% 30.37 in 10.0 mi West 17.3 mph - N/A   Clear
12:55 PM 3.2 °F -14.6 °F -7.6 °F 61% 30.36 in 10.0 mi West 13.8 mph - N/A   Clear
1:15 PM 5.0 °F -13.0 °F -7.6 °F 56% 30.35 in 10.0 mi West 15.0 mph - N/A   Clear
1:35 PM 5.0 °F -10.8 °F -7.6 °F 56% 30.34 in 10.0 mi West 11.5 mph - N/A   Clear
1:55 PM 6.8 °F -9.3 °F -5.8 °F 56% 30.33 in 10.0 mi West 12.7 mph - N/A   Clear
2:15 PM 6.8 °F -9.3 °F -5.8 °F 56% 30.33 in 10.0 mi West 12.7 mph - N/A   Clear
2:35 PM 6.8 °F -12.9 °F -5.8 °F 56% 30.32 in 10.0 mi West 19.6 mph - N/A   Clear
2:55 PM 6.8 °F -10.7 °F -5.8 °F 56% 30.31 in 10.0 mi WNW 15.0 mph - N/A   Clear
3:15 PM 6.8 °F -10.7 °F -5.8 °F 56% 30.31 in 10.0 mi WNW 15.0 mph - N/A   Clear
3:35 PM 6.8 °F -8.6 °F -4.0 °F 61% 30.30 in 10.0 mi West 11.5 mph - N/A   Clear
3:55 PM 6.8 °F -5.9 °F -5.8 °F 56% 30.30 in 10.0 mi West 8.1 mph - N/A   Clear
4:15 PM 6.8 °F -6.9 °F -5.8 °F 56% 30.30 in 10.0 mi WNW 9.2 mph - N/A   Clear
4:35 PM 6.8 °F -5.9 °F -5.8 °F 56% 30.30 in 10.0 mi WNW 8.1 mph - N/A   Clear
4:55 PM 5.0 °F -8.1 °F -5.8 °F 61% 30.30 in 10.0 mi WNW 8.1 mph - N/A   Clear
5:15 PM 3.2 °F -7.8 °F -7.6 °F 61% 30.30 in 10.0 mi WNW 5.8 mph - N/A   Clear
5:35 PM 1.4 °F - -9.4 °F 61% 30.29 in 10.0 mi Calm Calm - N/A   Clear
5:55 PM 1.4 °F - -7.6 °F 66% 30.28 in 10.0 mi Calm Calm - N/A   Clear
6:15 PM -0.4 °F - -7.6 °F 72% 30.28 in 10.0 mi Calm Calm - N/A   Clear
6:35 PM -2.2 °F - -11.2 °F 66% 30.28 in 10.0 mi Calm Calm - N/A   Clear
6:55 PM -0.4 °F -8.3 °F -7.6 °F 72% 30.27 in 10.0 mi WSW 3.5 mph - N/A   Clear
7:15 PM -0.4 °F -8.3 °F -7.6 °F 72% 30.26 in 10.0 mi WSW 3.5 mph - N/A   Clear
7:35 PM -4.0 °F - -9.4 °F 78% 30.26 in 10.0 mi Calm Calm - N/A   Clear
7:55 PM -5.8 °F - -14.8 °F 65% 30.26 in 10.0 mi Calm Calm - N/A   Clear
8:15 PM -5.8 °F - -11.2 °F 77% 30.26 in 10.0 mi Calm Calm - N/A   Clear
8:35 PM -0.4 °F -10.4 °F -4.0 °F 85% 30.25 in 10.0 mi SW 4.6 mph - N/A   Clear
8:55 PM 1.4 °F -6.2 °F -7.6 °F 66% 30.25 in 10.0 mi SW 3.5 mph - N/A   Clear
9:15 PM -0.4 °F - -7.6 °F 72% 30.25 in 10.0 mi Calm Calm - N/A   Clear
9:35 PM -2.2 °F - -11.2 °F 66% 30.25 in 10.0 mi Calm Calm - N/A   Clear
9:55 PM -0.4 °F - -7.6 °F 72% 30.25 in 10.0 mi Calm Calm - N/A   Clear
10:15 PM -2.2 °F - -9.4 °F 71% 30.25 in 10.0 mi Calm Calm - N/A   Clear
10:35 PM -2.2 °F -10.4 °F -9.4 °F 71% 30.25 in 10.0 mi WSW 3.5 mph - N/A   Clear
10:55 PM -5.8 °F - -13.0 °F 71% 30.25 in 10.0 mi Calm Calm - N/A   Clear
11:15 PM -5.8 °F -14.5 °F -11.2 °F 77% 30.24 in 10.0 mi WSW 3.5 mph - N/A   Clear
11:35 PM -7.6 °F -16.5 °F -11.2 °F 84% 30.23 in 10.0 mi WSW 3.5 mph - N/A   Clear
11:55 PM -5.8 °F - -11.2 °F 77% 30.23 in 10.0 mi Calm Calm - N/A   Clear